Portada
METAR-TAF:

METAR-TAF

Aeropuertos :

Cairo Regional Airport

Cairo, Illinois, Estados Unidos

latitud: 37-03-52N, longitud: 089-13-10W, altitud: 98 m

Observación

El informe se hizo hace 24 minutos, a las 19:15 UTC
Viento 4 kt del suroeste
Temperatura 31°C
Humedad 55%
Presión 1023 hPa
Visibilidad: 16.1 km
Cielo despejado

METAR: KCIR 191915Z AUTO 22004KT 10SM CLR 31/21 A3021 RMK AO2 T03050210

Hora: 14:39 (19:39 UTC)


TAF: falta

Observaciones y pronósticos meteorológicos de más de 4000 aeropuertos (mensajes METAR y TAF).

Los puntos amarillos y rojos representan las estaciones disponibles.

Ponga el ratón en el punto deseado para ver el nombre de la estación.

Haga clic para ver las observaciones y los pronósticos meteorológicos.

Para cambiar el mapa : haga clic en los botones verdes con una cruz de color negro para hacer un zoom, en el botón verde con un guión para alejar o en las flechas verdes para mapas adyacentes.


METAR-TAF: